Weather reports worldwide

Advertisment
Aerodrome Albert-Bray, France (7059): temperature & dewpoint: 10.12.2019 02:00:00 - 16.12.2019 02:00:00 (CET)Aerodrome Albert-Bray, France (7059): wind speed & gusts: 10.12.2019 02:00:00 - 16.12.2019 02:00:00 (CET)Aerodrome Albert-Bray, France (7059): wind direction: 10.12.2019 02:00:00 - 16.12.2019 02:00:00 (CET)Aerodrome Albert-Bray, France (7059): reduced air pressure: 10.12.2019 02:00:00 - 16.12.2019 02:00:00 (CET)Aerodrome Albert-Bray, France (7059): visibility: 10.12.2019 02:00:00 - 16.12.2019 02:00:00 (CET)Aerodrome Albert-Bray, France (7059): precipitation: 10.12.2019 02:00:00 - 16.12.2019 02:00:00 (CET)
Date & Time tt [°C] td [°C] ff [km/h] ff [kn] fx [km/h] fx [kn] dd ppp [hPa] vv [km] rr [mm]
16.12.2019 02:00:00 6,2 6,1 16 9 30 16 S 1005,1 9 0,0
16.12.2019 01:00:00 6,2 5,6 18 10 27 15 S 1005,1 10 0,0
16.12.2019 00:00:00 5,6 5,0 17 9 27 14 SSW 1005,5 15 0,0
15.12.2019 23:00:00 6,0 5,0 21 11 31 17 S 1005,6 10 0,0
15.12.2019 22:00:00 5,7 4,5 20 11 29 16 S 1005,8 17 0,0
15.12.2019 21:00:00 5,6 3,4 18 10 26 14 S 1005,8 10 0,0
15.12.2019 20:00:00 5,0 3,5 18 10 26 14 SSW 1005,9 10 0,0
15.12.2019 19:00:00 5,4 3,6 22 12 30 16 SSW 1005,8 17 0,0
15.12.2019 18:00:00 5,4 3,4 21 11 26 14 SSW 1005,7 10 0,0
15.12.2019 17:00:00 6,2 3,5 18 10 34 19 SSW 1005,3 10 0,0
15.12.2019 16:00:00 7,4 3,6 22 12 44 24 SSW 1004,8 10 0,0
15.12.2019 15:00:00 7,9 3,4 27 15 40 22 SSW 1004,6 29 0,0
15.12.2019 14:00:00 7,8 3,6 26 14 40 21 SSW 1004,1 20 0,0
15.12.2019 13:00:00 7,4 3,6 26 14 41 22 SSW 1003,7 10 0,0
15.12.2019 12:00:00 8,6 4,8 28 15 39 21 SSW 1003,6 10 0,0
15.12.2019 11:00:00 7,7 4,6 23 12 36 19 SSW 1002,9 19 0,0
15.12.2019 10:00:00 6,5 4,0 24 13 34 18 SW 1002,0 10 0,0
15.12.2019 09:00:00 4,9 3,1 16 9 35 19 SW 1001,2 10 0,0
15.12.2019 08:00:00 6,0 3,3 26 14 44 24 WSW 1000,0 10 0,0
15.12.2019 07:00:00 7,1 4,6 34 18 65 35 WSW 998,8 10 0,0
15.12.2019 06:00:00 7,6 4,7 31 17 64 34 WSW 997,0 10 0,0
15.12.2019 05:00:00 8,9 6,7 45 24 67 36 WSW 995,6 13 1,8
15.12.2019 04:00:00 10,4 7,6 39 21 71 38 SW 994,1 10 0,0
15.12.2019 03:00:00 9,9 8,3 44 24 66 35 SSW 993,7 10 0,2
15.12.2019 02:00:00 8,5 7,4 34 18 46 25 SSW 994,0 54 0,0
15.12.2019 01:00:00 7,3 6,4 29 16 43 23 S 995,1 18 0,0
15.12.2019 00:00:00 7,1 5,6 33 18 49 26 S 996,2 15 0,0
14.12.2019 23:00:00 6,7 4,7 22 12 34 18 S 997,6 10 0,0
14.12.2019 22:00:00 6,0 4,0 21 11 31 17 S 998,6 10 0,0
14.12.2019 21:00:00 5,8 3,6 21 11 33 18 SSW 999,9 10 0,0
14.12.2019 20:00:00 5,8 3,6 16 8 31 17 SSW 1000,7 20 0,0
14.12.2019 19:00:00 6,6 4,1 23 12 34 18 SW 1000,7 20 0,0
14.12.2019 18:00:00 6,2 3,5 26 14 47 25 SW 1000,4 10 0,0
14.12.2019 17:00:00 7,6 3,4 33 18 54 29 WSW 999,8 15 0,0
14.12.2019 16:00:00 8,4 4,6 30 16 54 29 W 998,7 19 0,0
14.12.2019 15:00:00 8,0 6,1 42 23 66 35 W 997,7 10 1,0
14.12.2019 14:00:00 8,5 5,9 42 23 71 38 WSW 996,8 10 0,0
14.12.2019 13:00:00 7,7 5,5 41 22 64 35 SW 996,4 10 0,0
14.12.2019 12:00:00 7,7 4,8 37 20 58 31 SW 995,9 10 0,2
14.12.2019 11:00:00 7,0 5,1 28 15 53 29 SW 996,4 17 0,0
14.12.2019 10:00:00 6,4 3,5 25 14 62 33 WSW 996,0 20 0,0
14.12.2019 09:00:00 6,7 2,6 29 16 68 37 W 994,7 10 0,0
14.12.2019 08:00:00 6,3 4,6 30 16 60 33 W 993,0 18 0,0
14.12.2019 07:00:00 6,8 4,6 35 19 59 32 W 991,6 6 0,6
14.12.2019 06:00:00 6,9 4,9 28 15 71 38 WNW 990,3 10 0,0
14.12.2019 05:00:00 7,7 5,3 51 27 83 45 WNW 988,1 60 0,2
14.12.2019 04:00:00 9,1 8,2 42 23 61 33 WSW 983,8 6 0,2
14.12.2019 03:00:00 8,2 7,0 28 15 51 28 SW 983,1 10 0,0
14.12.2019 02:00:00 7,3 6,9 31 17 53 29 SW 982,9 10 0,6
14.12.2019 01:00:00 5,9 5,9 28 15 43 23 S 983,9 9 1,6
14.12.2019 00:00:00 5,4 5,3 27 14 39 21 S 986,3 4,1 0,8
13.12.2019 23:00:00 5,5 4,5 26 14 42 23 SSW 987,8 6 0,8
13.12.2019 22:00:00 5,8 3,5 28 15 40 22 SSW 987,8 19 0,0
13.12.2019 21:00:00 5,4 2,9 24 13 37 20 SSW 989,0 10 0,0
13.12.2019 20:00:00 5,3 2,6 22 12 34 18 SW 989,5 19 0,0
13.12.2019 19:00:00 4,9 2,8 16 9 35 19 WSW 989,5 10 0,0
13.12.2019 18:00:00 5,8 3,6 18 10 40 22 WSW 989,2 10 0,0
13.12.2019 17:00:00 6,8 3,2 27 15 67 36 W 988,5 18 0,0
13.12.2019 16:00:00 7,4 4,0 31 17 59 32 W 987,2 10 0,0
13.12.2019 15:00:00 6,8 4,9 27 15 58 32 WNW 985,9 7 0,4
13.12.2019 14:00:00 7,6 3,6 35 19 70 38 WNW 984,6 10 0,0
13.12.2019 13:00:00 7,6 3,6 45 25 73 39 WNW 983,2 17 0,0
13.12.2019 12:00:00 7,1 4,6 39 21 77 41 WNW 981,7 10 0,4
13.12.2019 11:00:00 6,9 4,7 42 23 79 43 WNW 980,2 10 0,2
13.12.2019 10:00:00 6,5 4,5 42 23 81 44 WNW 978,5 10 0,4
13.12.2019 09:00:00 7,2 3,8 42 23 75 40 W 976,9 10 0,0
13.12.2019 08:00:00 7,0 4,1 44 24 71 39 W 975,6 32 0,0
13.12.2019 07:00:00 7,0 4,1 41 22 66 36 W 974,5 10 0,0
13.12.2019 06:00:00 7,0 5,6 31 17 56 30 W 973,7 10 1,0
13.12.2019 05:00:00 6,4 5,3 35 19 53 29 WSW 973,3 17 0,3
13.12.2019 04:00:00 6,5 5,6 31 17 79 43 WSW 973,9 10 1,2
13.12.2019 03:00:00 7,1 6,8 28 15 39 21 SSW 974,3 10 1,0
13.12.2019 02:00:00 6,7 6,7 26 14 40 22 S 976,2 5 3,6
13.12.2019 01:00:00 6,5 6,4 28 15 39 21 S 978,4 10 0,0
13.12.2019 00:00:00 5,9 5,8 22 12 38 21 S 980,4 10 0,0
12.12.2019 23:00:00 5,5 5,4 27 15 50 27 S 981,8 28 0,0
12.12.2019 22:00:00 5,5 5,1 31 17 50 27 S 983,0 10 0,2
12.12.2019 21:00:00 5,5 4,8 34 18 63 34 S 984,0 10 0,2
12.12.2019 20:00:00 5,7 4,8 37 20 55 30 S 985,6 10 1,2
12.12.2019 19:00:00 5,5 5,1 35 19 56 30 S 987,2 10 0,8
12.12.2019 18:00:00 5,2 4,8 35 19 55 30 S 988,7 9 0,2
12.12.2019 17:00:00 4,8 4,4 37 20 54 29 S 990,3 10 0,0
12.12.2019 16:00:00 4,6 4,0 33 18 56 30 S 992,0 14 0,0
12.12.2019 15:00:00 4,5 3,3 37 20 61 33 S 993,7 10 0,0
12.12.2019 14:00:00 4,1 3,1 36 19 58 31 S 996,0 19 0,0
12.12.2019 13:00:00 3,8 2,8 32 18 49 27 S 998,5 17 0,0
12.12.2019 12:00:00 3,0 2,4 26 14 45 24 S 1000,5 10 0,0
12.12.2019 11:00:00 2,8 2,4 24 13 39 21 S 1001,9 20 0,0
12.12.2019 10:00:00 1,9 1,5 20 11 29 16 S 1002,8 20 0,0
12.12.2019 09:00:00 1,6 1,2 18 10 27 14 S 1003,7 10 0,2
12.12.2019 08:00:00 1,4 1,3 14 7 25 13 S 1004,2 20 0,0
12.12.2019 07:00:00 1,8 1,4 18 10 29 16 SSW 1004,6 10 0,0
12.12.2019 06:00:00 1,9 1,5 18 10 30 16 SW 1004,8 10 0,0
12.12.2019 05:00:00 1,6 1,5 18 10 24 13 SW 1005,1 53 0,0
12.12.2019 04:00:00 1,9 1,8 16 9 21 11 SW 1005,3 10 0,0
12.12.2019 03:00:00 2,4 2,1 15 8 21 12 SW 1005,3 10 0,0
12.12.2019 02:00:00 2,8 2,7 14 8 23 13 WSW 1005,0 60 0,0
12.12.2019 01:00:00 3,7 3,1 18 10 24 13 WSW 1004,8 60 0,2
12.12.2019 00:00:00 4,7 4,3 16 9 25 13 W 1005,2 10 0,0
11.12.2019 23:00:00 4,7 4,0 16 9 27 14 WSW 1005,0 10 0,0
11.12.2019 22:00:00 5,0 4,0 18 10 33 18 SW 1005,1 10 0,0
11.12.2019 21:00:00 5,0 4,1 18 10 29 16 SSW 1005,1 10 0,8
11.12.2019 20:00:00 5,3 4,7 16 9 29 16 SSW 1005,3 7 0,2
11.12.2019 19:00:00 5,2 4,3 20 11 27 15 S 1005,4 19 0,0
11.12.2019 18:00:00 5,5 4,3 18 10 35 19 S 1005,7 10 0,0
11.12.2019 17:00:00 5,9 4,9 21 11 31 17 SSW 1006,2 18 0,0
11.12.2019 16:00:00 6,6 5,4 13 7 29 15 SSW 1006,5 10 0,0
11.12.2019 15:00:00 7,4 5,9 16 9 30 16 SW 1007,0 10 0,0
11.12.2019 14:00:00 7,2 6,1 16 9 28 15 SW 1007,4 14 0,0
11.12.2019 13:00:00 7,2 6,3 19 10 26 14 WSW 1008,1 17 0,0
11.12.2019 12:00:00 7,1 6,5 14 7 23 13 SW 1008,6 17 0,0
11.12.2019 11:00:00 6,6 6,3 8 4 21 12 SW 1009,6 10 0,2
11.12.2019 10:00:00 6,2 6,2 8 4 11 6 WSW 1009,9 7 0,4
11.12.2019 09:00:00 5,8 5,8 5 3 15 8 WSW 1010,0 3,6 0,6
11.12.2019 08:00:00 6,0 6,0 8 4 12 6 SSW 1010,1 5 0,2
11.12.2019 07:00:00 6,3 6,3 8 4 12 7 S 1010,4 3,4 1,0
11.12.2019 06:00:00 6,3 6,3 7 4 21 12 SSW 1010,9 9 1,2
11.12.2019 05:00:00 6,5 6,5 11 6 21 11 S 1011,2 10 0,6
11.12.2019 04:00:00 6,8 6,8 13 7 34 19 WSW 1011,7 6 1,2
11.12.2019 03:00:00 6,9 6,2 24 13 40 22 SSW 1011,8 10 0,0
11.12.2019 02:00:00 6,2 5,5 26 14 39 21 S 1012,0 10 0,0
11.12.2019 01:00:00 5,9 5,0 23 13 42 23 S 1012,6 19 0,0
11.12.2019 00:00:00 5,9 4,7 28 15 48 26 S 1013,0 19 0,0
10.12.2019 23:00:00 6,1 4,4 35 19 53 28 S 1013,9 10 0,0
10.12.2019 22:00:00 6,2 3,9 34 18 55 30 S 1014,1 10 0,0
10.12.2019 21:00:00 6,3 3,6 37 20 61 33 S 1015,0 10 0,0
10.12.2019 20:00:00 6,2 3,4 36 19 57 31 S 1016,0 20 0,0
10.12.2019 19:00:00 6,0 3,5 34 18 53 28 S 1016,6 10 0,0
10.12.2019 18:00:00 5,8 3,3 28 15 50 27 S 1017,7 19 0,0
10.12.2019 17:00:00 5,9 3,1 29 16 45 25 S 1018,4 19 0,0
10.12.2019 16:00:00 5,9 3,4 28 15 44 24 S 1019,7 18 0,0
10.12.2019 15:00:00 6,3 3,5 28 15 42 23 S 1021,2 10 0,0
10.12.2019 14:00:00 5,9 3,2 29 15 42 23 S 1022,4 18 0,0
10.12.2019 13:00:00 5,1 2,6 26 14 36 19 S 1023,9 10 0,0
10.12.2019 12:00:00 4,0 1,9 23 12 35 19 S 1024,9 18 0,0
10.12.2019 11:00:00 3,2 1,1 21 11 32 17 S 1025,5 10 0,0
10.12.2019 10:00:00 2,1 0,5 18 10 26 14 S 1026,1 10 0,0
10.12.2019 09:00:00 0,0 -0,9 15 8 19 11 S 1026,8 10 0,0
10.12.2019 08:00:00 -0,7 -1,4 11 6 19 10 S 1027,4 10 0,0
10.12.2019 07:00:00 -0,7 -1,4 11 6 14 8 S 1027,4 38 0,0
10.12.2019 06:00:00 -0,4 -1,2 9 5 10 5 SSW 1027,8 10 0,0
10.12.2019 05:00:00 0,4 -0,9 6 3 10 5 SSW 1027,3 20 0,0
10.12.2019 04:00:00 0,2 -1,1 6 4 16 9 SW 1027,7 20 0,0
10.12.2019 03:00:00 -0,4 -2,0 13 7 18 10 WSW 1027,7 10 0,0
10.12.2019 02:00:00 -0,4 -1,8 17 9 18 10 W 1027,2 47 0,0

tt = temperature
td = dewpoint
ff = wind speed
fx = gusts
dd = wind direction
ppp = reduced air pressure
vv = visibility
rr = precipitation

Next stations